{"data":{"norad_id":69372,"intl_designator":"2026-123V","name":"STARLINK-37688","alt_names":[],"object_type":"PAYLOAD","status":"ACTIVE","operator":null,"country":"US","launch_date":"2026-06-04","launch_site_code":"AFETR","launch_vehicle":null,"mission":null,"orbit_class":"UNKNOWN","rcs_meters":null,"size_class":null,"mass_kg":null,"dimensions":null,"purposes":["comms"],"wikipedia_slug":null,"has_3d_model":false,"image_url":null,"decayed_at":null,"tle_current":{"epoch":"2026-09-19T22:12:59.006016Z","epoch_age_seconds":78520,"freshness":"FRESH","line1":"1 69372U 26123V   26262.92568294  .00020314  00000+0  61059-3 0  9997","line2":"2 69372  53.1598 144.2644 0001372  77.8811 282.2345 15.34406618 16786","mean_motion":15.34406618,"eccentricity":0.0001372,"inclination_deg":53.1598,"raan_deg":144.2644,"arg_perigee_deg":77.8811,"mean_anomaly_deg":282.2345,"bstar":0.00061059,"rev_number":1678,"period_min":93.847353309578,"perigee_km":461.74500960489,"apogee_km":463.62213076935,"semimajor_km":6840.8205701871,"source":"CELESTRAK","updated_at":"2026-09-20T09:00:44.168309Z"}}}